Terminal Aerodrome Forecast
Issued by NWS Austin/San Antonio, TX

Home | Current Version | Previous Version | Text Only | Print | Product List | Glossary On
Versions: 1 2 3 4 5 6 7 8 9 10 11 12 13
773
FTUS44 KEWX 071733
TAFDRT
TAF
KDRT 071733Z 0718/0818 15011KT P6SM FEW250
     FM080100 VRB03KT P6SM FEW250
     FM080900 34012KT P6SM FEW250=

USA.gov is the U.S. government's official web portal to all federal, state and local government web resources and services.